Date String (YYYY-MM-DD hh:mm:ss) UTC,Instrument flags,Ambient pressure (hPa),Sample flow (lpm),Bypass flow (lpm),Sample temperature (°C),Ambient temperature (°C),ASC tube jacket temperature (°C),LED temperature (°C),Box temperature (°C),Sample RH (%),Span deviation,Mass concentration (μg/m³),Mass concentration (μg/m³),Mass concentration (μg/m³)
DateTimeUTC,F1_M11,P_M11,Q1_M11,Q2_M11,T1_M11,T2_M11,T3_M11,T4_M11,T5_M11,U1_M11,ZSPAN_M11,X0_M11,X2_M11,X1_M11
2022-10-11 09:00:00,,0821.2,5.00,0.00,29.9,28.2,00.0,38.8,31.6,10.4,0000.0,0008.82,0004.12,0003.46
2022-10-11 09:01:00,,0821.1,5.00,0.00,29.9,28.2,00.0,38.8,31.7,10.4,0000.0,0010.14,0004.20,0003.52
2022-10-11 09:02:00,,0821.2,5.00,0.00,29.9,28.2,00.0,38.8,31.6,10.4,0000.0,0013.05,0004.44,0003.58
2022-10-11 09:03:00,,0821.1,4.98,0.00,29.9,28.1,00.0,38.8,31.6,10.4,0000.0,0014.42,0004.58,0003.64
2022-10-11 09:04:00,,0821.1,5.01,0.00,29.9,28.1,00.0,38.8,31.6,10.4,0000.0,0016.46,0004.68,0003.70
2022-10-11 09:05:00,,0821.1,5.01,0.00,29.9,28.1,00.0,38.8,31.6,10.3,0000.0,0019.08,0004.81,0003.78
2022-10-11 09:06:00,,0821.2,4.99,0.00,29.8,28.1,00.0,38.7,31.6,10.3,0000.0,0020.36,0004.93,0003.85
2022-10-11 09:07:00,,0821.2,5.01,0.00,29.8,28.0,00.0,38.7,31.5,10.4,0000.0,0020.31,0004.93,0003.91
2022-10-11 09:08:00,,0821.3,5.01,0.00,29.8,28.0,00.0,38.7,31.5,10.4,0000.0,0020.48,0004.98,0003.97
2022-10-11 09:09:00,,0821.3,4.99,0.00,29.8,28.0,00.0,38.7,31.5,10.5,0000.0,0020.59,0005.06,0004.02
2022-10-11 09:10:00,,0821.2,5.00,0.00,29.8,28.0,00.0,38.7,31.5,10.4,0000.0,0020.34,0005.08,0004.07
2022-10-11 09:11:00,,0821.1,5.01,0.00,29.8,28.0,00.0,38.7,31.5,10.4,0000.0,0019.78,0005.10,0004.08
2022-10-11 09:12:00,,0821.2,5.00,0.00,29.8,28.0,00.0,38.7,31.5,10.4,0000.0,0018.73,0005.11,0004.12
2022-10-11 09:13:00,,0821.2,4.99,0.00,29.7,28.0,00.0,38.7,31.5,10.4,0000.0,0016.10,0004.98,0004.13
2022-10-11 09:14:00,,0821.2,5.00,0.00,29.7,27.9,00.0,38.7,31.4,10.5,0000.0,0014.69,0004.92,0004.15
2022-10-11 09:15:00,,0821.2,5.01,0.00,29.7,27.9,00.0,38.6,31.4,10.4,0000.0,0012.71,0004.92,0004.16
2022-10-11 09:16:00,,0821.2,5.01,0.00,29.7,27.9,00.0,38.6,31.4,10.5,0000.0,0010.00,0004.84,0004.15
2022-10-11 09:17:00,,0821.3,5.01,0.00,29.7,27.9,00.0,38.6,31.4,10.5,0000.0,0008.49,0004.73,0004.13
2022-10-11 09:18:00,,0821.3,4.99,0.00,29.7,27.9,00.0,38.6,31.4,10.5,0000.0,0008.27,0004.72,0004.12
2022-10-11 09:19:00,,0821.3,4.99,0.00,29.7,27.9,00.0,38.6,31.4,10.5,0000.0,0008.58,0004.71,0004.11
2022-10-11 09:20:00,,0821.3,5.01,0.00,29.7,27.9,00.0,38.6,31.4,10.5,0000.0,0008.67,0004.66,0004.10
2022-10-11 09:21:00,,0821.2,5.01,0.00,29.7,27.9,00.0,38.6,31.4,10.5,0000.0,0009.46,0004.66,0004.10
2022-10-11 09:22:00,,0821.4,5.00,0.00,29.7,27.9,00.0,38.6,31.4,10.4,0000.0,0009.38,0004.63,0004.09
2022-10-11 09:23:00,,0821.2,5.00,0.00,29.6,27.9,00.0,38.6,31.4,10.4,0000.0,0009.87,0004.64,0004.07
2022-10-11 09:24:00,,0821.2,4.99,0.00,29.6,27.9,00.0,38.5,31.3,10.4,0000.0,0010.02,0004.64,0004.06
2022-10-11 09:25:00,,0821.2,5.00,0.00,29.6,27.9,00.0,38.5,31.3,10.4,0000.0,0010.08,0004.61,0004.04
2022-10-11 09:26:00,,0821.2,5.00,0.00,29.6,27.9,00.0,38.5,31.3,10.4,0000.0,0010.64,0004.56,0004.02
2022-10-11 09:27:00,,0821.1,5.01,0.00,29.6,27.9,00.0,38.5,31.3,10.4,0000.0,0011.10,0004.52,0004.01
2022-10-11 09:28:00,,0821.1,5.01,0.00,29.6,27.9,00.0,38.5,31.3,10.4,0000.0,0011.20,0004.53,0004.00
2022-10-11 09:29:00,,0821.1,5.00,0.00,29.6,27.9,00.0,38.5,31.3,10.4,0000.0,0011.49,0004.54,0003.98
2022-10-11 09:30:00,,0821.1,5.00,0.00,29.6,27.8,00.0,38.5,31.3,10.4,0000.0,0011.04,0004.53,0003.97
2022-10-11 09:31:00,,0821.1,5.00,0.00,29.6,27.8,00.0,38.5,31.3,10.4,0000.0,0010.89,0004.54,0003.98
2022-10-11 09:32:00,,0821.2,5.01,0.00,29.6,27.8,00.0,38.5,31.3,10.4,0000.0,0010.12,0004.56,0003.98
2022-10-11 09:33:00,,0821.2,4.99,0.00,29.6,27.8,00.0,38.5,31.3,10.4,0000.0,0010.14,0004.58,0003.98
2022-10-11 09:34:00,,0821.1,4.99,0.00,29.6,27.8,00.0,38.4,31.3,10.5,0000.0,0009.89,0004.60,0004.00
2022-10-11 09:35:00,,0821.1,5.00,0.00,29.5,27.8,00.0,38.4,31.3,10.5,0000.0,0009.64,0004.64,0004.02
2022-10-11 09:36:00,,0821.0,5.01,0.00,29.5,27.8,00.0,38.4,31.3,10.4,0000.0,0010.18,0004.65,0004.04
2022-10-11 09:37:00,,0820.9,5.00,0.00,29.5,27.8,00.0,38.4,31.3,10.4,0000.0,0010.47,0004.70,0004.08
2022-10-11 09:38:00,,0820.9,5.00,0.00,29.5,27.8,00.0,38.4,31.3,10.4,0000.0,0010.27,0004.74,0004.12
2022-10-11 09:39:00,,0820.9,4.99,0.00,29.5,27.8,00.0,38.4,31.3,10.4,0000.0,0010.57,0004.79,0004.17
2022-10-11 09:40:00,,0820.8,4.99,0.00,29.5,27.8,00.0,38.4,31.3,10.3,0000.0,0011.07,0004.84,0004.21
2022-10-11 09:41:00,,0820.8,5.00,0.00,29.5,27.8,00.0,38.4,31.3,10.2,0000.0,0011.05,0004.87,0004.26
2022-10-11 09:42:00,,0820.9,5.01,0.00,29.5,27.7,00.0,38.4,31.3,10.1,0000.0,0011.20,0004.94,0004.29
2022-10-11 09:43:00,,0821.0,5.01,0.00,29.5,27.7,00.0,38.4,31.3,10.1,0000.0,0011.97,0005.01,0004.32
2022-10-11 09:44:00,,0821.0,4.99,0.00,29.5,27.7,00.0,38.4,31.2,10.2,0000.0,0012.63,0005.05,0004.36
2022-10-11 09:45:00,,0821.1,5.01,0.00,29.5,27.7,00.0,38.3,31.2,10.3,0000.0,0012.50,0005.04,0004.39
2022-10-11 09:46:00,,0821.0,5.01,0.00,29.4,27.7,00.0,38.3,31.2,10.2,0000.0,0013.00,0005.06,0004.40
2022-10-11 09:47:00,,0821.0,5.00,0.00,29.4,27.7,00.0,38.3,31.2,10.1,0000.0,0012.87,0005.10,0004.43
2022-10-11 09:48:00,,0821.0,5.00,0.00,29.4,27.7,00.0,38.3,31.2,10.2,0000.0,0012.00,0005.11,0004.43
2022-10-11 09:49:00,,0821.0,5.00,0.00,29.4,27.7,00.0,38.3,31.2,10.2,0000.0,0011.60,0005.13,0004.43
2022-10-11 09:50:00,,0821.0,5.00,0.00,29.4,27.7,00.0,38.3,31.1,10.2,0000.0,0011.29,0005.12,0004.44
2022-10-11 09:51:00,,0821.0,5.00,0.00,29.4,27.6,00.0,38.3,31.1,10.3,0000.0,0010.64,0005.11,0004.44
2022-10-11 09:52:00,,0821.1,5.01,0.00,29.4,27.6,00.0,38.3,31.1,10.2,0000.0,0010.91,0005.10,0004.45
2022-10-11 09:53:00,,0821.1,5.01,0.00,29.4,27.6,00.0,38.3,31.1,10.3,0000.0,0011.44,0005.09,0004.47
2022-10-11 09:54:00,,0821.1,4.98,0.00,29.4,27.6,00.0,38.3,31.1,10.2,0000.0,0010.48,0005.04,0004.47
2022-10-11 09:55:00,,0821.1,4.99,0.00,29.4,27.7,00.0,38.3,31.1,10.2,0000.0,0009.91,0005.03,0004.47
2022-10-11 09:56:00,,0821.1,5.01,0.00,29.4,27.7,00.0,38.3,31.1,10.3,0000.0,0009.92,0005.05,0004.49
2022-10-11 09:57:00,,0821.1,5.00,0.00,29.4,27.7,00.0,38.2,31.1,10.3,0000.0,0010.28,0005.05,0004.51
2022-10-11 09:58:00,,0821.1,5.01,0.00,29.4,27.7,00.0,38.2,31.1,10.3,0000.0,0010.02,0005.04,0004.51
2022-10-11 09:59:00,,0821.0,4.99,0.00,29.4,27.7,00.0,38.2,31.1,10.3,0000.0,0010.14,0005.03,0004.51
